Time,TemperatureF,DewpointF,PressureIn,WindDirection,WindDirectionDegrees,WindSpeedMPH,WindSpeedGustMPH,Humidity,HourlyPrecipIn,Conditions,Clouds,dailyrainin,SoftwareType,DateUTC
2013-02-19 00:01:00,40.8,8.6,29.80,SSE,166,5.8,9.2,26,0.00,,SKC,0.00,VWS V14.01,2013-02-19 08:01:00,
2013-02-19 00:06:00,40.6,8.4,29.77,SSE,151,10.5,15.0,26,0.00,,SKC,0.00,VWS V14.01,2013-02-19 08:06:00,
2013-02-19 00:11:00,40.8,8.6,29.77,SSE,165,8.1,8.1,26,0.00,,SKC,0.00,VWS V14.01,2013-02-19 08:11:00,
2013-02-19 00:16:00,41.0,8.8,29.77,South,179,7.6,8.7,26,0.00,,SKC,0.00,VWS V14.01,2013-02-19 08:16:00,
2013-02-19 00:21:00,40.8,5.9,29.77,SSW,199,12.8,13.2,23,0.00,,SKC,0.00,VWS V14.01,2013-02-19 08:21:00,
2013-02-19 00:26:00,40.6,5.8,29.77,SSW,202,15.4,19.7,23,0.00,,SKC,0.00,VWS V14.01,2013-02-19 08:26:00,
2013-02-19 00:31:00,40.5,5.6,29.77,SSE,168,10.5,15.0,23,0.00,,SKC,0.00,VWS V14.01,2013-02-19 08:31:00,
2013-02-19 00:36:00,39.9,5.1,29.77,South,170,13.2,13.2,23,0.00,,SKC,0.00,VWS V14.01,2013-02-19 08:36:00,
2013-02-19 00:41:00,39.7,7.7,29.77,SSE,152,7.6,8.3,26,0.00,,SKC,0.00,VWS V14.01,2013-02-19 08:41:00,
2013-02-19 00:46:00,39.4,7.4,29.77,SSW,207,3.1,5.4,26,0.00,,SKC,0.00,VWS V14.01,2013-02-19 08:46:00,
2013-02-19 00:51:00,39.2,7.2,29.77,SSW,198,8.3,8.3,26,0.00,,SKC,0.00,VWS V14.01,2013-02-19 08:51:00,
2013-02-19 00:56:00,38.8,9.3,29.77,ESE,115,3.1,3.1,29,0.00,,SKC,0.00,VWS V14.01,2013-02-19 08:56:00,
2013-02-19 01:01:00,38.5,9.0,29.77,NE,54,0.0,3.6,29,0.00,,SKC,0.00,VWS V14.01,2013-02-19 09:01:00,
2013-02-19 01:06:00,38.3,8.8,29.77,East,100,5.8,5.8,29,0.00,,SKC,0.00,VWS V14.01,2013-02-19 09:06:00,
2013-02-19 01:11:00,38.3,8.8,29.77,NE,39,5.4,5.4,29,0.00,,SKC,0.00,VWS V14.01,2013-02-19 09:11:00,
2013-02-19 01:16:00,37.9,8.5,29.77,ESE,112,0.0,3.1,29,0.00,,SKC,0.00,VWS V14.01,2013-02-19 09:16:00,
2013-02-19 01:21:00,37.6,13.1,29.77,SSE,155,8.1,8.1,36,0.00,,SKC,0.00,VWS V14.01,2013-02-19 09:21:00,
2013-02-19 01:26:00,37.4,14.1,29.77,ESE,106,2.7,2.7,38,0.00,,SKC,0.00,VWS V14.01,2013-02-19 09:26:00,
2013-02-19 01:31:00,37.0,15.0,29.77,ESE,120,6.3,6.3,40,0.00,,SKC,0.00,VWS V14.01,2013-02-19 09:31:00,
2013-02-19 01:36:00,37.0,15.0,29.77,SE,140,9.6,10.5,40,0.00,,SKC,0.00,VWS V14.01,2013-02-19 09:36:00,
2013-02-19 01:41:00,36.7,17.4,29.77,SE,132,15.0,15.0,45,0.00,,SKC,0.00,VWS V14.01,2013-02-19 09:41:00,
2013-02-19 01:46:00,36.3,17.5,29.77,SSE,155,14.5,17.4,46,0.00,,SKC,0.00,VWS V14.01,2013-02-19 09:46:00,
2013-02-19 01:51:00,36.1,17.9,29.74,SE,133,8.1,8.3,47,0.00,,SKC,0.00,VWS V14.01,2013-02-19 09:51:00,
2013-02-19 01:56:00,36.0,18.2,29.74,SE,126,11.4,12.3,48,0.00,,SKC,0.00,VWS V14.01,2013-02-19 09:56:00,
2013-02-19 02:01:00,36.0,18.2,29.74,ESE,104,16.3,16.3,48,0.00,,SKC,0.00,VWS V14.01,2013-02-19 10:01:00,
2013-02-19 02:06:00,36.0,18.7,29.74,East,100,11.0,11.0,49,0.00,,SKC,0.00,VWS V14.01,2013-02-19 10:06:00,
2013-02-19 02:11:00,35.8,18.5,29.74,SE,143,13.2,13.2,49,0.00,,SKC,0.00,VWS V14.01,2013-02-19 10:11:00,
2013-02-19 02:16:00,36.3,18.0,29.74,SSE,156,10.5,10.5,47,0.00,,SKC,0.00,VWS V14.01,2013-02-19 10:16:00,
2013-02-19 02:21:00,36.9,16.5,29.74,SSE,157,10.5,10.5,43,0.00,,SKC,0.00,VWS V14.01,2013-02-19 10:21:00,
2013-02-19 02:26:00,37.0,17.2,29.74,SSE,150,10.5,10.5,44,0.00,,SKC,0.00,VWS V14.01,2013-02-19 10:26:00,
2013-02-19 02:31:00,37.0,17.2,29.74,SSE,159,12.3,17.4,44,0.00,,SKC,0.00,VWS V14.01,2013-02-19 10:31:00,
2013-02-19 02:36:00,37.0,17.2,29.74,SE,144,11.9,12.8,44,0.00,,SKC,0.00,VWS V14.01,2013-02-19 10:36:00,
2013-02-19 02:41:00,36.9,19.0,29.74,SSE,165,15.0,26.2,48,0.00,,SKC,0.00,VWS V14.01,2013-02-19 10:41:00,
2013-02-19 02:46:00,36.1,20.7,29.74,SSE,151,15.4,18.8,53,0.00,,SKC,0.00,VWS V14.01,2013-02-19 10:46:00,
2013-02-19 02:51:00,36.0,21.4,29.71,SE,133,17.0,21.0,55,0.00,,SKC,0.00,VWS V14.01,2013-02-19 10:51:00,
2013-02-19 02:56:00,36.3,20.4,29.71,SSE,148,12.8,14.1,52,0.00,,SKC,0.00,VWS V14.01,2013-02-19 10:56:00,
2013-02-19 03:01:00,36.1,21.1,29.71,SE,126,13.2,13.2,54,0.00,,SKC,0.00,VWS V14.01,2013-02-19 11:01:00,
2013-02-19 03:06:00,36.0,21.8,29.71,SE,136,11.0,12.8,56,0.00,,SKC,0.00,VWS V14.01,2013-02-19 11:06:00,
2013-02-19 03:11:00,36.5,20.6,29.71,SSE,156,11.9,11.9,52,0.00,,SKC,0.00,VWS V14.01,2013-02-19 11:11:00,
2013-02-19 03:16:00,36.7,20.7,29.71,SE,146,4.0,13.6,52,0.00,,SKC,0.00,VWS V14.01,2013-02-19 11:16:00,
2013-02-19 03:21:00,36.5,21.5,29.71,SE,141,10.1,13.2,54,0.00,,SKC,0.00,VWS V14.01,2013-02-19 11:21:00,
2013-02-19 03:26:00,36.3,22.1,29.71,SE,144,5.8,13.6,56,0.00,,SKC,0.00,VWS V14.01,2013-02-19 11:26:00,
2013-02-19 03:31:00,36.3,21.3,29.71,SE,146,8.7,12.8,54,0.00,,SKC,0.00,VWS V14.01,2013-02-19 11:31:00,
2013-02-19 03:36:00,36.3,22.1,29.71,SE,137,8.3,13.2,56,0.00,,SKC,0.00,VWS V14.01,2013-02-19 11:36:00,
2013-02-19 03:41:00,35.6,25.4,29.71,South,171,6.7,9.6,66,0.00,,SKC,0.00,VWS V14.01,2013-02-19 11:41:00,
2013-02-19 03:46:00,35.4,26.6,29.71,SE,135,4.5,7.6,70,0.00,,SKC,0.00,VWS V14.01,2013-02-19 11:46:00,
2013-02-19 03:51:00,35.2,26.8,29.71,SSE,153,6.3,8.1,71,0.00,,SKC,0.00,VWS V14.01,2013-02-19 11:51:00,
2013-02-19 03:56:00,35.4,27.3,29.71,SE,135,8.7,9.6,72,0.00,,SKC,0.00,VWS V14.01,2013-02-19 11:56:00,
2013-02-19 04:01:00,35.6,25.7,29.71,SE,142,8.7,8.7,67,0.00,,SKC,0.00,VWS V14.01,2013-02-19 12:01:00,
2013-02-19 04:06:00,36.0,23.8,29.71,SE,131,11.0,13.6,61,0.00,,SKC,0.00,VWS V14.01,2013-02-19 12:06:00,
2013-02-19 04:11:00,35.8,24.0,29.71,SSE,150,12.3,12.3,62,0.00,,SKC,0.00,VWS V14.01,2013-02-19 12:11:00,
2013-02-19 04:16:00,35.6,22.7,29.71,SE,142,11.0,11.0,59,0.00,,SKC,0.00,VWS V14.01,2013-02-19 12:16:00,
2013-02-19 04:21:00,36.1,21.5,29.68,SE,130,8.7,11.0,55,0.00,,SKC,0.00,VWS V14.01,2013-02-19 12:21:00,
2013-02-19 04:26:00,36.3,21.3,29.68,SSE,157,5.8,8.3,54,0.00,,SKC,0.00,VWS V14.01,2013-02-19 12:26:00,
2013-02-19 04:31:00,36.5,21.0,29.68,SE,143,5.4,10.1,53,0.00,,SKC,0.00,VWS V14.01,2013-02-19 12:31:00,
2013-02-19 04:36:00,36.3,20.4,29.68,SE,128,8.7,10.1,52,0.00,,SKC,0.00,VWS V14.01,2013-02-19 12:36:00,
2013-02-19 04:41:00,36.5,20.1,29.68,South,183,6.7,7.6,51,0.00,,SKC,0.00,VWS V14.01,2013-02-19 12:41:00,
2013-02-19 04:46:00,36.7,20.3,29.68,SSW,199,8.3,10.5,51,0.00,,SKC,0.00,VWS V14.01,2013-02-19 12:46:00,
2013-02-19 04:51:00,36.7,18.4,29.68,SSE,153,11.9,15.0,47,0.00,,SKC,0.00,VWS V14.01,2013-02-19 12:51:00,
2013-02-19 04:56:00,37.0,17.2,29.68,SSE,151,7.6,8.7,44,0.00,,SKC,0.00,VWS V14.01,2013-02-19 12:56:00,
2013-02-19 05:01:00,37.4,16.4,29.68,SSE,161,3.6,6.3,42,0.00,,SKC,0.00,VWS V14.01,2013-02-19 13:01:00,
2013-02-19 05:06:00,37.9,16.4,29.68,SE,126,10.5,12.8,41,0.00,,SKC,0.00,VWS V14.01,2013-02-19 13:06:00,
2013-02-19 05:11:00,37.9,16.4,29.68,SE,134,5.8,5.8,41,0.00,,SKC,0.00,VWS V14.01,2013-02-19 13:11:00,
2013-02-19 05:16:00,37.6,16.0,29.68,SSE,149,6.3,12.8,41,0.00,,SKC,0.00,VWS V14.01,2013-02-19 13:16:00,
2013-02-19 05:21:00,37.9,15.8,29.68,ESE,112,6.7,8.3,40,0.00,,SKC,0.00,VWS V14.01,2013-02-19 13:21:00,
2013-02-19 05:26:00,37.6,16.0,29.68,SE,144,13.2,13.2,41,0.00,,SKC,0.00,VWS V14.01,2013-02-19 13:26:00,
2013-02-19 05:31:00,37.4,15.9,29.68,SSE,159,11.0,11.0,41,0.00,,SKC,0.00,VWS V14.01,2013-02-19 13:31:00,
2013-02-19 05:36:00,37.6,15.5,29.68,SE,142,5.8,12.8,40,0.00,,SKC,0.00,VWS V14.01,2013-02-19 13:36:00,
2013-02-19 05:41:00,37.6,14.9,29.68,SW,220,6.3,8.1,39,0.00,,SKC,0.00,VWS V14.01,2013-02-19 13:41:00,
2013-02-19 05:46:00,37.6,14.9,29.68,SE,145,7.6,10.5,39,0.00,,SKC,0.00,VWS V14.01,2013-02-19 13:46:00,
2013-02-19 05:51:00,37.6,14.9,29.68,South,173,11.0,12.8,39,0.00,,SKC,0.00,VWS V14.01,2013-02-19 13:51:00,
2013-02-19 05:56:00,37.2,14.6,29.68,SSE,158,8.1,10.5,39,0.00,,SKC,0.00,VWS V14.01,2013-02-19 13:56:00,
2013-02-19 06:01:00,36.9,14.2,29.68,SSE,157,6.3,8.1,39,0.00,,SKC,0.00,VWS V14.01,2013-02-19 14:01:00,
2013-02-19 06:06:00,36.7,14.6,29.68,SSE,149,8.1,8.1,40,0.00,,SKC,0.00,VWS V14.01,2013-02-19 14:06:00,
2013-02-19 06:11:00,36.1,13.6,29.68,SSW,199,5.4,6.3,39,0.00,,SKC,0.00,VWS V14.01,2013-02-19 14:11:00,
2013-02-19 06:16:00,35.8,13.3,29.68,SSW,194,8.1,8.1,39,0.00,,SKC,0.00,VWS V14.01,2013-02-19 14:16:00,
2013-02-19 06:21:00,35.8,13.3,29.71,SSE,160,6.3,6.3,39,0.00,,SKC,0.00,VWS V14.01,2013-02-19 14:21:00,
2013-02-19 06:26:00,35.8,12.1,29.71,South,179,5.8,6.3,37,0.00,,SKC,0.00,VWS V14.01,2013-02-19 14:26:00,
2013-02-19 06:31:00,36.1,11.8,29.71,South,172,5.4,5.4,36,0.00,,SKC,0.00,VWS V14.01,2013-02-19 14:31:00,
2013-02-19 06:36:00,36.0,11.6,29.68,South,179,7.6,8.3,36,0.00,,SKC,0.00,VWS V14.01,2013-02-19 14:36:00,
2013-02-19 06:41:00,36.0,11.6,29.68,SSE,153,10.5,10.5,36,0.00,,SKC,0.00,VWS V14.01,2013-02-19 14:41:00,
2013-02-19 06:46:00,35.8,11.4,29.68,SSW,195,8.1,8.1,36,0.00,,SKC,0.00,VWS V14.01,2013-02-19 14:46:00,
2013-02-19 06:51:00,35.6,11.3,29.68,SSE,168,5.4,8.3,36,0.00,,SKC,0.00,VWS V14.01,2013-02-19 14:51:00,
2013-02-19 06:56:00,35.6,10.7,29.68,SSW,206,5.8,5.8,35,0.00,,SKC,0.00,VWS V14.01,2013-02-19 14:56:00,
2013-02-19 07:01:00,35.6,10.7,29.68,SSE,162,5.4,8.7,35,0.00,,SKC,0.00,VWS V14.01,2013-02-19 15:01:00,
2013-02-19 07:06:00,35.4,11.1,29.68,SSE,156,8.1,8.1,36,0.00,,SKC,0.00,VWS V14.01,2013-02-19 15:06:00,
2013-02-19 07:11:00,35.1,10.2,29.68,South,176,8.1,8.1,35,0.00,,SKC,0.00,VWS V14.01,2013-02-19 15:11:00,
2013-02-19 07:16:00,35.1,8.9,29.68,SSE,167,8.1,8.7,33,0.00,,SKC,0.00,VWS V14.01,2013-02-19 15:16:00,
2013-02-19 07:21:00,35.4,9.2,29.68,South,172,11.4,11.4,33,0.00,,SKC,0.00,VWS V14.01,2013-02-19 15:21:00,
2013-02-19 07:26:00,35.6,8.7,29.68,SE,142,8.1,11.0,32,0.00,,SKC,0.00,VWS V14.01,2013-02-19 15:26:00,
2013-02-19 07:31:00,35.6,8.7,29.68,SSE,162,8.3,12.3,32,0.00,,SKC,0.00,VWS V14.01,2013-02-19 15:31:00,
2013-02-19 07:36:00,35.6,8.7,29.68,SSE,150,8.7,8.7,32,0.00,,SKC,0.00,VWS V14.01,2013-02-19 15:36:00,
2013-02-19 07:41:00,36.0,9.0,29.68,SSE,149,11.0,13.2,32,0.00,,SKC,0.00,VWS V14.01,2013-02-19 15:41:00,
2013-02-19 07:46:00,36.3,9.3,29.68,SSW,206,10.1,10.1,32,0.00,,SKC,0.00,VWS V14.01,2013-02-19 15:46:00,
2013-02-19 07:51:00,36.5,9.5,29.68,SSE,156,6.3,6.3,32,0.00,,SKC,0.00,VWS V14.01,2013-02-19 15:51:00,
2013-02-19 07:56:00,36.5,9.5,29.68,South,171,5.8,8.3,32,0.00,,SKC,0.00,VWS V14.01,2013-02-19 15:56:00,
2013-02-19 08:01:00,36.7,8.9,29.68,SSE,155,11.4,11.4,31,0.00,,SKC,0.00,VWS V14.01,2013-02-19 16:01:00,
2013-02-19 08:06:00,37.4,9.5,29.65,South,184,10.5,10.5,31,0.00,,SKC,0.00,VWS V14.01,2013-02-19 16:06:00,
2013-02-19 08:11:00,37.9,10.0,29.65,SE,128,5.4,5.4,31,0.00,,SKC,0.00,VWS V14.01,2013-02-19 16:11:00,
2013-02-19 08:16:00,38.1,9.4,29.65,SSE,158,8.3,8.7,30,0.00,,SKC,0.00,VWS V14.01,2013-02-19 16:16:00,
2013-02-19 08:21:00,38.1,10.2,29.68,South,181,5.4,5.4,31,0.00,,SKC,0.00,VWS V14.01,2013-02-19 16:21:00,
2013-02-19 08:26:00,37.9,9.3,29.68,SSW,197,5.8,8.3,30,0.00,,SKC,0.00,VWS V14.01,2013-02-19 16:26:00,
2013-02-19 08:31:00,38.1,9.4,29.68,SSW,203,8.3,10.5,30,0.00,,SKC,0.00,VWS V14.01,2013-02-19 16:31:00,
2013-02-19 08:36:00,37.9,9.3,29.68,SSE,156,8.3,8.3,30,0.00,,SKC,0.00,VWS V14.01,2013-02-19 16:36:00,
2013-02-19 08:41:00,37.9,9.3,29.68,SSW,204,12.8,12.8,30,0.00,,SKC,0.00,VWS V14.01,2013-02-19 16:41:00,
2013-02-19 08:46:00,37.8,9.1,29.68,SW,231,10.1,14.1,30,0.00,,SKC,0.00,VWS V14.01,2013-02-19 16:46:00,
2013-02-19 08:51:00,38.5,9.0,29.65,WSW,238,10.1,10.5,29,0.00,,SKC,0.00,VWS V14.01,2013-02-19 16:51:00,
2013-02-19 08:56:00,39.7,10.1,29.65,South,184,4.9,4.9,29,0.00,,SKC,0.00,VWS V14.01,2013-02-19 16:56:00,
2013-02-19 09:01:00,40.6,10.9,29.65,SW,217,3.6,5.4,29,0.00,,SKC,0.00,VWS V14.01,2013-02-19 17:01:00,
2013-02-19 09:06:00,41.0,11.2,29.65,SW,216,5.8,6.3,29,0.00,,SKC,0.00,VWS V14.01,2013-02-19 17:06:00,
2013-02-19 09:11:00,40.8,11.0,29.65,SE,138,8.1,8.7,29,0.00,,SKC,0.00,VWS V14.01,2013-02-19 17:11:00,
2013-02-19 09:16:00,41.2,11.4,29.65,SSE,155,6.3,10.5,29,0.00,,SKC,0.00,VWS V14.01,2013-02-19 17:16:00,
2013-02-19 09:21:00,41.9,12.0,29.65,SSW,194,4.9,5.4,29,0.00,,SKC,0.00,VWS V14.01,2013-02-19 17:21:00,
2013-02-19 09:26:00,40.8,11.0,29.65,South,171,5.8,7.6,29,0.00,,SKC,0.00,VWS V14.01,2013-02-19 17:26:00,
2013-02-19 09:31:00,41.5,10.9,29.65,SW,235,8.7,8.7,28,0.00,,SKC,0.00,VWS V14.01,2013-02-19 17:31:00,
2013-02-19 09:36:00,42.1,11.3,29.68,WSW,245,3.6,8.7,28,0.00,,SKC,0.00,VWS V14.01,2013-02-19 17:36:00,
2013-02-19 09:41:00,42.3,9.8,29.68,SE,138,5.8,7.6,26,0.00,,SKC,0.00,VWS V14.01,2013-02-19 17:41:00,
2013-02-19 09:46:00,42.8,9.4,29.68,South,184,10.5,12.3,25,0.00,,SKC,0.00,VWS V14.01,2013-02-19 17:46:00,
2013-02-19 09:51:00,42.3,9.8,29.68,SE,145,10.5,10.5,26,0.00,,SKC,0.00,VWS V14.01,2013-02-19 17:51:00,
2013-02-19 09:56:00,41.4,9.1,29.68,South,186,19.7,19.7,26,0.00,,SKC,0.00,VWS V14.01,2013-02-19 17:56:00,
2013-02-19 10:01:00,40.8,8.6,29.68,South,177,15.4,18.3,26,0.00,,SKC,0.00,VWS V14.01,2013-02-19 18:01:00,
2013-02-19 10:06:00,41.0,8.8,29.71,SSE,147,18.8,18.8,26,0.00,,SKC,0.00,VWS V14.01,2013-02-19 18:06:00,
2013-02-19 10:10:00,42.6,10.1,29.71,South,178,15.4,15.4,26,0.00,,SKC,0.00,VWS V14.01,2013-02-19 18:10:00,
2013-02-19 10:16:00,43.0,9.6,29.71,SSW,212,8.1,15.4,25,0.00,,SKC,0.00,VWS V14.01,2013-02-19 18:16:00,
2013-02-19 10:21:00,42.8,9.4,29.71,South,186,10.5,13.2,25,0.00,,SKC,0.00,VWS V14.01,2013-02-19 18:21:00,
2013-02-19 10:26:00,42.8,7.6,29.71,SW,216,14.5,14.5,23,0.00,,SKC,0.00,VWS V14.01,2013-02-19 18:26:00,
2013-02-19 10:31:00,43.0,7.7,29.71,SSW,211,11.9,12.8,23,0.00,,SKC,0.00,VWS V14.01,2013-02-19 18:31:00,
2013-02-19 10:36:00,42.4,7.3,29.71,WSW,237,9.6,9.6,23,0.00,,SKC,0.00,VWS V14.01,2013-02-19 18:36:00,
2013-02-19 10:41:00,42.6,7.4,29.71,South,182,8.7,15.9,23,0.00,,SKC,0.00,VWS V14.01,2013-02-19 18:41:00,
2013-02-19 10:45:00,42.3,7.1,29.71,SSE,168,6.3,18.3,23,0.00,,SKC,0.00,VWS V14.01,2013-02-19 18:45:00,
2013-02-19 10:50:00,42.1,7.0,29.71,SW,235,14.5,17.9,23,0.00,,SKC,0.00,VWS V14.01,2013-02-19 18:50:00,
2013-02-19 10:55:00,42.4,7.3,29.71,South,179,12.3,16.8,23,0.00,,SKC,0.00,VWS V14.01,2013-02-19 18:55:00,
2013-02-19 11:00:00,42.1,7.0,29.71,SSW,202,12.8,18.8,23,0.00,,SKC,0.00,VWS V14.01,2013-02-19 19:00:00,
2013-02-19 11:05:00,42.3,7.1,29.68,SSE,155,12.8,12.8,23,0.00,,SKC,0.00,VWS V14.01,2013-02-19 19:05:00,
2013-02-19 11:10:00,42.8,7.6,29.68,SW,225,8.3,8.7,23,0.00,,SKC,0.00,VWS V14.01,2013-02-19 19:10:00,
2013-02-19 11:15:00,43.2,7.9,29.68,SSW,194,13.2,18.3,23,0.00,,SKC,0.00,VWS V14.01,2013-02-19 19:15:00,
2013-02-19 11:20:00,42.3,7.1,29.68,South,179,17.4,17.4,23,0.00,,SKC,0.00,VWS V14.01,2013-02-19 19:20:00,
2013-02-19 11:25:00,43.9,8.5,29.68,SW,216,8.3,18.8,23,0.00,,SKC,0.00,VWS V14.01,2013-02-19 19:25:00,
2013-02-19 11:30:00,43.0,7.7,29.68,SW,216,12.8,16.8,23,0.00,,SKC,0.00,VWS V14.01,2013-02-19 19:30:00,
2013-02-19 11:35:00,43.0,7.7,29.68,SSW,197,15.0,15.0,23,0.00,,SKC,0.00,VWS V14.01,2013-02-19 19:35:00,
2013-02-19 11:40:00,41.5,6.5,29.68,South,179,17.0,19.2,23,0.00,,SKC,0.00,VWS V14.01,2013-02-19 19:40:00,
2013-02-19 11:45:00,42.4,7.3,29.68,SSW,208,8.3,17.4,23,0.00,,SKC,0.00,VWS V14.01,2013-02-19 19:45:00,
2013-02-19 11:50:00,42.4,7.3,29.65,SSW,194,15.4,15.4,23,0.00,,SKC,0.00,VWS V14.01,2013-02-19 19:50:00,
2013-02-19 11:55:00,41.0,6.1,29.65,South,178,26.2,26.2,23,0.00,,SKC,0.00,VWS V14.01,2013-02-19 19:55:00,
2013-02-19 12:00:00,41.0,6.1,29.65,SSE,165,16.8,22.4,23,0.00,,SKC,0.00,VWS V14.01,2013-02-19 20:00:00,
2013-02-19 12:05:00,40.3,5.4,29.65,South,176,19.7,19.7,23,0.00,,SKC,0.00,VWS V14.01,2013-02-19 20:05:00,
2013-02-19 12:10:00,40.3,5.4,29.65,South,176,18.3,18.3,23,0.00,,SKC,0.00,VWS V14.01,2013-02-19 20:10:00,
2013-02-19 12:15:00,40.8,5.9,29.65,South,186,16.3,23.7,23,0.00,,SKC,0.00,VWS V14.01,2013-02-19 20:15:00,
2013-02-19 12:20:00,41.2,6.2,29.62,SSW,209,18.8,20.1,23,0.00,,SKC,0.00,VWS V14.01,2013-02-19 20:20:00,
2013-02-19 12:25:00,41.2,6.2,29.62,SSW,197,28.0,28.0,23,0.00,,SKC,0.00,VWS V14.01,2013-02-19 20:25:00,
2013-02-19 12:30:00,42.1,7.0,29.62,South,179,12.8,15.9,23,0.00,,SKC,0.00,VWS V14.01,2013-02-19 20:30:00,
2013-02-19 12:35:00,42.6,7.4,29.62,South,179,18.3,18.8,23,0.00,,SKC,0.00,VWS V14.01,2013-02-19 20:35:00,
2013-02-19 12:40:00,40.6,5.8,29.62,SSE,162,19.2,24.6,23,0.00,,SKC,0.00,VWS V14.01,2013-02-19 20:40:00,
2013-02-19 12:45:00,40.5,5.6,29.62,South,184,12.8,17.4,23,0.00,,SKC,0.00,VWS V14.01,2013-02-19 20:45:00,
2013-02-19 12:50:00,41.4,6.4,29.62,SW,235,11.9,14.5,23,0.00,,SKC,0.00,VWS V14.01,2013-02-19 20:50:00,
2013-02-19 12:55:00,41.0,6.1,29.62,South,186,20.6,27.5,23,0.00,,SKC,0.00,VWS V14.01,2013-02-19 20:55:00,
2013-02-19 13:00:00,41.2,4.2,29.62,SSW,194,24.6,24.6,21,0.00,,SKC,0.00,VWS V14.01,2013-02-19 21:00:00,
2013-02-19 13:05:00,40.8,3.9,29.59,SSW,203,23.3,25.7,21,0.00,,SKC,0.00,VWS V14.01,2013-02-19 21:05:00,
2013-02-19 13:10:00,40.8,3.9,29.59,SSW,207,29.8,29.8,21,0.00,,SKC,0.00,VWS V14.01,2013-02-19 21:10:00,
2013-02-19 13:15:00,40.3,5.4,29.59,South,177,22.8,22.8,23,0.00,,SKC,0.00,VWS V14.01,2013-02-19 21:15:00,
2013-02-19 13:20:00,39.7,5.0,29.59,SSE,157,23.3,27.5,23,0.00,,SKC,0.00,VWS V14.01,2013-02-19 21:20:00,
2013-02-19 13:25:00,39.0,5.3,29.59,South,188,20.1,25.7,24,0.00,,SKC,0.00,VWS V14.01,2013-02-19 21:25:00,
2013-02-19 13:30:00,38.8,5.2,29.59,SSE,158,22.8,22.8,24,0.00,,SKC,0.00,VWS V14.01,2013-02-19 21:30:00,
2013-02-19 13:35:00,39.0,5.3,29.59,SSE,158,24.6,24.6,24,0.00,,SKC,0.00,VWS V14.01,2013-02-19 21:35:00,
2013-02-19 13:40:00,38.7,5.0,29.59,SSE,160,24.2,25.7,24,0.00,,SKC,0.00,VWS V14.01,2013-02-19 21:40:00,
2013-02-19 13:45:00,38.7,5.0,29.59,South,177,8.7,15.4,24,0.00,,SKC,0.00,VWS V14.01,2013-02-19 21:45:00,
2013-02-19 13:50:00,39.0,5.3,29.59,South,176,14.5,25.7,24,0.00,,SKC,0.00,VWS V14.01,2013-02-19 21:50:00,
2013-02-19 13:55:00,39.2,4.5,29.59,SSE,155,21.0,22.4,23,0.00,,SKC,0.00,VWS V14.01,2013-02-19 21:55:00,
2013-02-19 14:00:00,39.7,5.0,29.59,SSE,164,22.8,26.2,23,0.00,,SKC,0.00,VWS V14.01,2013-02-19 22:00:00,
2013-02-19 14:05:00,39.2,4.5,29.59,SW,230,16.3,22.4,23,0.00,,SKC,0.00,VWS V14.01,2013-02-19 22:05:00,
2013-02-19 14:10:00,38.3,4.7,29.59,SSW,192,22.8,26.2,24,0.00,,SKC,0.00,VWS V14.01,2013-02-19 22:10:00,
2013-02-19 14:15:00,38.5,4.8,29.59,South,175,17.9,29.3,24,0.00,,SKC,0.00,VWS V14.01,2013-02-19 22:15:00,
2013-02-19 14:20:00,37.9,4.4,29.59,South,185,25.1,27.1,24,0.00,,SKC,0.00,VWS V14.01,2013-02-19 22:20:00,
2013-02-19 14:25:00,38.1,4.5,29.59,SSE,168,13.6,21.5,24,0.00,,SKC,0.00,VWS V14.01,2013-02-19 22:25:00,
2013-02-19 14:30:00,38.5,4.8,29.59,SSE,159,10.1,13.6,24,0.00,,SKC,0.00,VWS V14.01,2013-02-19 22:30:00,
2013-02-19 14:35:00,38.8,5.2,29.59,South,173,17.0,18.8,24,0.00,,SKC,0.00,VWS V14.01,2013-02-19 22:35:00,
2013-02-19 14:40:00,38.8,5.2,29.59,SW,222,19.2,19.2,24,0.00,,SKC,0.00,VWS V14.01,2013-02-19 22:40:00,
2013-02-19 14:45:00,38.7,5.0,29.59,SSW,199,23.7,23.7,24,0.00,,SKC,0.00,VWS V14.01,2013-02-19 22:45:00,
2013-02-19 14:50:00,38.1,4.5,29.59,SSE,168,18.8,18.8,24,0.00,,SKC,0.00,VWS V14.01,2013-02-19 22:50:00,
2013-02-19 14:55:00,37.9,4.4,29.59,South,188,24.2,24.6,24,0.00,,SKC,0.00,VWS V14.01,2013-02-19 22:55:00,
2013-02-19 15:00:00,38.3,4.7,29.59,SSE,152,11.0,12.3,24,0.00,,SKC,0.00,VWS V14.01,2013-02-19 23:00:00,
2013-02-19 15:05:00,38.1,4.5,29.59,SSE,154,19.2,19.7,24,0.00,,SKC,0.00,VWS V14.01,2013-02-19 23:05:00,
2013-02-19 15:10:00,37.9,4.4,29.59,South,178,17.4,23.7,24,0.00,,SKC,0.00,VWS V14.01,2013-02-19 23:10:00,
2013-02-19 15:15:00,37.6,4.1,29.59,South,181,12.8,23.3,24,0.00,,SKC,0.00,VWS V14.01,2013-02-19 23:15:00,
2013-02-19 15:20:00,37.8,4.2,29.59,SW,217,19.7,19.7,24,0.00,,SKC,0.00,VWS V14.01,2013-02-19 23:20:00,
2013-02-19 15:25:00,38.1,4.5,29.59,SSW,199,16.3,16.3,24,0.00,,SKC,0.00,VWS V14.01,2013-02-19 23:25:00,
2013-02-19 15:30:00,37.9,4.4,29.59,SSE,167,13.2,22.4,24,0.00,,SKC,0.00,VWS V14.01,2013-02-19 23:30:00,
2013-02-19 15:35:00,38.5,4.8,29.59,SSW,202,18.3,18.3,24,0.00,,SKC,0.00,VWS V14.01,2013-02-19 23:35:00,
2013-02-19 15:40:00,38.5,4.8,29.59,SSW,199,8.7,15.0,24,0.00,,SKC,0.00,VWS V14.01,2013-02-19 23:40:00,
2013-02-19 15:45:00,39.0,5.3,29.59,South,174,11.0,11.0,24,0.00,,SKC,0.00,VWS V14.01,2013-02-19 23:45:00,
2013-02-19 15:50:00,38.8,5.2,29.59,SE,144,15.9,15.9,24,0.00,,SKC,0.00,VWS V14.01,2013-02-19 23:50:00,
2013-02-19 15:55:00,38.3,4.7,29.59,South,191,8.3,11.0,24,0.00,,SKC,0.00,VWS V14.01,2013-02-19 23:55:00,
2013-02-19 16:00:00,38.5,4.8,29.59,SSW,194,7.6,12.8,24,0.00,,SKC,0.00,VWS V14.01,2013-02-20 00:00:00,
2013-02-19 16:05:00,38.8,5.2,29.59,SSE,150,8.3,12.8,24,0.00,,SKC,0.00,VWS V14.01,2013-02-20 00:05:00,
2013-02-19 16:10:00,38.3,4.7,29.59,South,191,6.3,12.8,24,0.00,,SKC,0.00,VWS V14.01,2013-02-20 00:10:00,
2013-02-19 16:15:00,37.9,4.4,29.59,SW,227,6.3,8.3,24,0.00,,SKC,0.00,VWS V14.01,2013-02-20 00:15:00,
2013-02-19 16:20:00,37.6,4.1,29.59,South,171,8.1,12.3,24,0.00,,SKC,0.00,VWS V14.01,2013-02-20 00:20:00,
2013-02-19 16:25:00,36.7,3.3,29.59,SSE,151,10.5,12.3,24,0.00,,SKC,0.00,VWS V14.01,2013-02-20 00:25:00,
2013-02-19 16:30:00,36.3,3.0,29.59,SE,143,9.2,10.5,24,0.00,,SKC,0.00,VWS V14.01,2013-02-20 00:30:00,
2013-02-19 16:35:00,35.8,2.5,29.57,SSW,204,12.3,12.3,24,0.00,,SKC,0.00,VWS V14.01,2013-02-20 00:35:00,
2013-02-19 16:40:00,34.7,2.5,29.57,South,182,8.7,12.3,25,0.00,,SKC,0.00,VWS V14.01,2013-02-20 00:40:00,
2013-02-19 16:45:00,34.3,2.2,29.57,SSE,164,10.5,10.5,25,0.00,,SKC,0.00,VWS V14.01,2013-02-20 00:45:00,
2013-02-19 16:50:00,34.2,2.0,29.59,South,180,8.1,8.3,25,0.00,,SKC,0.00,VWS V14.01,2013-02-20 00:50:00,
2013-02-19 16:55:00,33.8,1.7,29.59,SW,214,8.1,8.1,25,0.00,,SKC,0.00,VWS V14.01,2013-02-20 00:55:00,
2013-02-19 17:00:00,33.8,1.7,29.59,South,179,5.8,8.3,25,0.00,,SKC,0.00,VWS V14.01,2013-02-20 01:00:00,
2013-02-19 17:05:00,33.6,1.6,29.59,SSE,160,6.7,11.0,25,0.00,,SKC,0.00,VWS V14.01,2013-02-20 01:05:00,
2013-02-19 17:10:00,33.8,1.7,29.59,SE,139,5.4,5.8,25,0.00,,SKC,0.00,VWS V14.01,2013-02-20 01:10:00,
2013-02-19 17:15:00,33.6,1.6,29.59,SSE,149,4.9,4.9,25,0.00,,SKC,0.00,VWS V14.01,2013-02-20 01:15:00,
2013-02-19 17:20:00,33.4,1.4,29.59,SE,127,5.8,5.8,25,0.00,,SKC,0.00,VWS V14.01,2013-02-20 01:20:00,
2013-02-19 17:25:00,33.3,1.2,29.59,SSW,194,6.3,6.3,25,0.00,,SKC,0.00,VWS V14.01,2013-02-20 01:25:00,
2013-02-19 17:30:00,33.1,1.1,29.59,SE,141,5.8,5.8,25,0.00,,SKC,0.00,VWS V14.01,2013-02-20 01:30:00,
2013-02-19 17:35:00,32.9,0.9,29.59,SSE,150,8.7,8.7,25,0.00,,SKC,0.00,VWS V14.01,2013-02-20 01:35:00,
2013-02-19 17:40:00,32.9,0.9,29.59,SE,144,6.3,7.6,25,0.00,,SKC,0.00,VWS V14.01,2013-02-20 01:40:00,
2013-02-19 17:45:00,32.7,0.8,29.59,SE,139,4.9,8.1,25,0.00,,SKC,0.00,VWS V14.01,2013-02-20 01:45:00,
2013-02-19 17:50:00,32.5,0.6,29.59,SSE,152,6.3,6.3,25,0.00,,SKC,0.00,VWS V14.01,2013-02-20 01:50:00,
2013-02-19 17:55:00,32.2,0.3,29.59,South,186,5.8,5.8,25,0.00,,SKC,0.00,VWS V14.01,2013-02-20 01:55:00,
2013-02-19 18:00:00,32.0,0.2,29.59,SE,143,5.8,8.1,25,0.00,,SKC,0.00,VWS V14.01,2013-02-20 02:00:00,
2013-02-19 18:05:00,31.8,2.4,29.62,SE,140,8.1,8.1,28,0.00,,SKC,0.00,VWS V14.01,2013-02-20 02:05:00,
2013-02-19 18:10:00,31.6,2.3,29.62,SE,126,8.1,8.1,28,0.00,,SKC,0.00,VWS V14.01,2013-02-20 02:10:00,
2013-02-19 18:15:00,31.6,2.3,29.62,SSE,147,5.8,8.1,28,0.00,,SKC,0.00,VWS V14.01,2013-02-20 02:15:00,
2013-02-19 18:20:00,31.1,1.8,29.62,ESE,109,5.8,8.1,28,0.00,,SKC,0.00,VWS V14.01,2013-02-20 02:20:00,
2013-02-19 18:25:00,30.9,1.7,29.62,SE,131,8.1,8.1,28,0.00,,SKC,0.00,VWS V14.01,2013-02-20 02:25:00,
2013-02-19 18:30:00,30.9,1.7,29.62,SE,142,7.6,7.6,28,0.00,,SKC,0.00,VWS V14.01,2013-02-20 02:30:00,
2013-02-19 18:35:00,30.9,3.1,29.62,SE,143,8.1,8.1,30,0.00,,SKC,0.00,VWS V14.01,2013-02-20 02:35:00,
2013-02-19 18:40:00,31.3,3.5,29.62,SSE,157,4.5,4.5,30,0.00,,SKC,0.00,VWS V14.01,2013-02-20 02:40:00,
2013-02-19 18:45:00,31.3,3.5,29.62,SSE,162,6.3,6.3,30,0.00,,SKC,0.00,VWS V14.01,2013-02-20 02:45:00,
2013-02-19 18:50:00,31.3,3.5,29.62,SSE,150,3.1,3.6,30,0.00,,SKC,0.00,VWS V14.01,2013-02-20 02:50:00,
2013-02-19 18:55:00,30.9,3.1,29.62,West,278,3.6,3.6,30,0.00,,SKC,0.00,VWS V14.01,2013-02-20 02:55:00,
2013-02-19 19:00:00,30.0,2.3,29.62,NW,306,3.1,3.1,30,0.00,,SKC,0.00,VWS V14.01,2013-02-20 03:00:00,
2013-02-19 19:05:00,28.9,2.1,29.62,NW,314,3.1,3.1,31,0.00,,SKC,0.00,VWS V14.01,2013-02-20 03:05:00,
2013-02-19 19:10:00,27.9,1.2,29.62,NW,316,0.0,0.0,31,0.00,,SKC,0.00,VWS V14.01,2013-02-20 03:10:00,
2013-02-19 19:15:00,27.1,1.2,29.62,NW,318,0.0,0.0,32,0.00,,SKC,0.00,VWS V14.01,2013-02-20 03:15:00,
2013-02-19 19:20:00,27.0,1.7,29.62,NW,318,0.0,0.0,33,0.00,,SKC,0.00,VWS V14.01,2013-02-20 03:20:00,
2013-02-19 19:25:00,26.8,1.5,29.62,NW,318,0.0,0.0,33,0.00,,SKC,0.00,VWS V14.01,2013-02-20 03:25:00,
2013-02-19 19:30:00,26.8,2.2,29.62,NW,318,0.0,0.0,34,0.00,,SKC,0.00,VWS V14.01,2013-02-20 03:30:00,
2013-02-19 19:35:00,26.4,2.5,29.65,NW,318,0.0,0.0,35,0.00,,SKC,0.00,VWS V14.01,2013-02-20 03:35:00,
2013-02-19 19:40:00,26.8,2.8,29.65,SE,144,4.0,4.0,35,0.00,,SKC,0.00,VWS V14.01,2013-02-20 03:40:00,
2013-02-19 19:45:00,27.3,3.3,29.65,SSE,151,4.0,4.0,35,0.00,,SKC,0.00,VWS V14.01,2013-02-20 03:45:00,
2013-02-19 19:50:00,27.5,3.5,29.62,South,185,0.0,0.0,35,0.00,,SKC,0.00,VWS V14.01,2013-02-20 03:50:00,
2013-02-19 19:55:00,27.3,3.3,29.62,SW,224,2.2,4.0,35,0.00,,SKC,0.00,VWS V14.01,2013-02-20 03:55:00,
2013-02-19 20:00:00,27.9,4.4,29.62,West,268,5.8,6.3,36,0.00,,SKC,0.00,VWS V14.01,2013-02-20 04:00:00,
2013-02-19 20:05:00,27.7,4.8,29.62,NW,310,4.5,4.5,37,0.00,,SKC,0.00,VWS V14.01,2013-02-20 04:05:00,
2013-02-19 20:10:00,27.5,5.8,29.62,WNW,297,6.3,6.3,39,0.00,,SKC,0.00,VWS V14.01,2013-02-20 04:10:00,
2013-02-19 20:15:00,27.1,5.5,29.62,NNW,346,4.0,6.3,39,0.00,,SKC,0.00,VWS V14.01,2013-02-20 04:15:00,
2013-02-19 20:20:00,27.0,3.6,29.65,NNE,30,3.1,3.1,36,0.00,,SKC,0.00,VWS V14.01,2013-02-20 04:20:00,
2013-02-19 20:25:00,27.0,3.6,29.65,NNE,32,2.7,2.7,36,0.00,,SKC,0.00,VWS V14.01,2013-02-20 04:25:00,
2013-02-19 20:30:00,27.1,4.3,29.65,NE,35,2.7,4.9,37,0.00,,SKC,0.00,VWS V14.01,2013-02-20 04:30:00,
2013-02-19 20:35:00,27.5,4.7,29.65,North,353,4.0,4.0,37,0.00,,SKC,0.00,VWS V14.01,2013-02-20 04:35:00,
2013-02-19 20:40:00,28.0,5.1,29.65,North,9,5.4,8.7,37,0.00,,SKC,0.00,VWS V14.01,2013-02-20 04:40:00,
2013-02-19 20:45:00,28.9,5.9,29.65,North,353,0.0,0.0,37,0.00,,SKC,0.00,VWS V14.01,2013-02-20 04:45:00,
2013-02-19 20:50:00,29.3,7.4,29.65,North,357,3.1,3.1,39,0.00,,SKC,0.00,VWS V14.01,2013-02-20 04:50:00,
2013-02-19 20:55:00,29.5,8.1,29.65,North,0,3.6,5.4,40,0.00,,SKC,0.00,VWS V14.01,2013-02-20 04:55:00,
2013-02-19 21:00:00,30.0,9.2,29.65,NNW,345,4.9,4.9,41,0.00,,SKC,0.00,VWS V14.01,2013-02-20 05:00:00,
2013-02-19 21:05:00,30.2,9.4,29.65,NNE,30,3.6,4.9,41,0.00,,SKC,0.00,VWS V14.01,2013-02-20 05:05:00,
2013-02-19 21:10:00,30.2,9.9,29.65,NNW,346,2.7,3.1,42,0.00,,SKC,0.00,VWS V14.01,2013-02-20 05:10:00,
2013-02-19 21:15:00,29.8,10.1,29.65,North,353,3.1,3.1,43,0.00,,SKC,0.00,VWS V14.01,2013-02-20 05:15:00,
2013-02-19 21:20:00,29.7,10.4,29.65,North,353,0.0,0.0,44,0.00,,SKC,0.00,VWS V14.01,2013-02-20 05:20:00,
2013-02-19 21:25:00,29.3,10.6,29.65,North,353,2.7,3.6,45,0.00,,SKC,0.00,VWS V14.01,2013-02-20 05:25:00,
2013-02-19 21:30:00,29.1,10.4,29.65,North,0,0.0,0.0,45,0.00,,SKC,0.00,VWS V14.01,2013-02-20 05:30:00,
2013-02-19 21:35:00,28.8,10.1,29.65,North,353,0.0,0.0,45,0.00,,SKC,0.00,VWS V14.01,2013-02-20 05:35:00,
2013-02-19 21:40:00,28.6,10.4,29.65,NNE,32,0.0,0.0,46,0.00,,SKC,0.00,VWS V14.01,2013-02-20 05:40:00,
2013-02-19 21:45:00,28.6,10.9,29.65,ESE,113,0.0,0.0,47,0.00,,SKC,0.00,VWS V14.01,2013-02-20 05:45:00,
2013-02-19 21:50:00,28.6,11.9,29.65,SE,129,0.0,0.0,49,0.00,,SKC,0.00,VWS V14.01,2013-02-20 05:50:00,
2013-02-19 21:55:00,28.4,13.0,29.65,SE,135,0.0,0.0,52,0.00,,SKC,0.00,VWS V14.01,2013-02-20 05:55:00,
2013-02-19 22:00:00,28.2,12.9,29.65,SE,135,0.0,0.0,52,0.00,,SKC,0.00,VWS V14.01,2013-02-20 06:00:00,
2013-02-19 22:05:00,27.9,12.1,29.65,SE,135,0.0,0.0,51,0.00,,SKC,0.00,VWS V14.01,2013-02-20 06:05:00,
2013-02-19 22:10:00,27.7,12.4,29.65,SE,135,0.0,0.0,52,0.00,,SKC,0.00,VWS V14.01,2013-02-20 06:10:00,
2013-02-19 22:15:00,27.1,11.9,29.65,SE,135,0.0,0.0,52,0.00,,SKC,0.00,VWS V14.01,2013-02-20 06:15:00,
2013-02-19 22:20:00,27.1,11.9,29.65,NE,37,0.0,0.0,52,0.00,,SKC,0.00,VWS V14.01,2013-02-20 06:20:00,
2013-02-19 22:25:00,27.5,11.8,29.65,North,357,0.0,0.0,51,0.00,,SKC,0.00,VWS V14.01,2013-02-20 06:25:00,
2013-02-19 22:30:00,27.7,10.1,29.65,North,0,2.7,3.1,47,0.00,,SKC,0.00,VWS V14.01,2013-02-20 06:30:00,
2013-02-19 22:35:00,28.2,9.6,29.65,NNW,342,3.1,5.8,45,0.00,,SKC,0.00,VWS V14.01,2013-02-20 06:35:00,
2013-02-19 22:40:00,28.6,9.4,29.65,NNW,342,5.4,5.8,44,0.00,,SKC,0.00,VWS V14.01,2013-02-20 06:40:00,
2013-02-19 22:45:00,28.8,9.6,29.65,NNW,337,4.0,8.3,44,0.00,,SKC,0.00,VWS V14.01,2013-02-20 06:45:00,
2013-02-19 22:50:00,28.9,9.8,29.65,NNW,334,3.1,6.3,44,0.00,,SKC,0.00,VWS V14.01,2013-02-20 06:50:00,
2013-02-19 22:55:00,28.9,9.8,29.65,NNW,337,2.7,6.7,44,0.00,,SKC,0.00,VWS V14.01,2013-02-20 06:55:00,
2013-02-19 23:00:00,28.8,9.6,29.65,North,3,6.3,7.6,44,0.00,,SKC,0.00,VWS V14.01,2013-02-20 07:00:00,
2013-02-19 23:05:00,28.9,9.8,29.65,NNW,336,4.9,5.8,44,0.00,,SKC,0.00,VWS V14.01,2013-02-20 07:05:00,
2013-02-19 23:10:00,28.9,9.8,29.65,North,353,3.6,5.4,44,0.00,,SKC,0.00,VWS V14.01,2013-02-20 07:10:00,
2013-02-19 23:15:00,28.8,9.6,29.65,North,0,4.9,4.9,44,0.00,,SKC,0.00,VWS V14.01,2013-02-20 07:15:00,
2013-02-19 23:20:00,28.9,9.8,29.65,NNW,348,2.2,4.0,44,0.00,,SKC,0.00,VWS V14.01,2013-02-20 07:20:00,
2013-02-19 23:25:00,28.9,9.8,29.68,NNW,333,0.0,0.0,44,0.00,,SKC,0.00,VWS V14.01,2013-02-20 07:25:00,
2013-02-19 23:30:00,29.1,9.9,29.68,NNW,330,3.6,5.8,44,0.00,,SKC,0.00,VWS V14.01,2013-02-20 07:30:00,
2013-02-19 23:35:00,29.3,10.1,29.68,North,1,2.2,3.1,44,0.00,,SKC,0.00,VWS V14.01,2013-02-20 07:35:00,
2013-02-19 23:40:00,29.3,11.6,29.68,North,0,2.7,3.6,47,0.00,,SKC,0.00,VWS V14.01,2013-02-20 07:40:00,
2013-02-19 23:45:00,29.3,12.5,29.68,North,357,3.6,4.9,49,0.00,,SKC,0.00,VWS V14.01,2013-02-20 07:45:00,
2013-02-19 23:50:00,28.9,13.1,29.68,NNE,21,0.0,0.0,51,0.00,,SKC,0.00,VWS V14.01,2013-02-20 07:50:00,
2013-02-19 23:55:00,28.6,13.6,29.68,North,357,0.0,0.0,53,0.00,,SKC,0.00,VWS V14.01,2013-02-20 07:55:00,